TimeMDT,TemperatureF,Dew PointF,Humidity,Sea Level PressureIn,VisibilityMPH,Wind Direction,Wind SpeedMPH,Gust SpeedMPH,PrecipitationIn,Events,Conditions,WindDirDegrees,DateUTC
12:15 AM,73.4,17.2,12,30.03,10.0,West,9.2,-,N/A,,Clear,270,2013-05-26 06:15:00
12:35 AM,70.5,16.5,13,30.03,10.0,West,8.1,-,N/A,,Clear,260,2013-05-26 06:35:00
12:55 AM,70.0,16.7,13,30.03,10.0,West,10.4,-,N/A,,Clear,260,2013-05-26 06:55:00
1:15 AM,69.4,16.3,13,30.03,10.0,West,9.2,-,N/A,,Clear,260,2013-05-26 07:15:00
1:35 AM,67.8,15.8,14,30.03,10.0,West,12.7,-,N/A,,Clear,280,2013-05-26 07:35:00
1:55 AM,67.6,15.1,13,30.04,10.0,West,10.4,-,N/A,,Clear,280,2013-05-26 07:55:00
2:15 AM,68.0,15.3,13,30.04,10.0,West,8.1,-,N/A,,Clear,280,2013-05-26 08:15:00
2:35 AM,66.7,14.7,13,30.05,10.0,NNW,3.5,-,N/A,,Clear,330,2013-05-26 08:35:00
2:55 AM,67.8,14.9,13,30.05,10.0,West,10.4,-,N/A,,Clear,280,2013-05-26 08:55:00
3:15 AM,67.1,14.5,13,30.05,10.0,WNW,9.2,-,N/A,,Clear,290,2013-05-26 09:15:00
3:35 AM,66.4,14.0,13,30.05,10.0,West,12.7,-,N/A,,Clear,270,2013-05-26 09:35:00
3:55 AM,66.6,14.0,13,30.05,10.0,West,11.5,-,N/A,,Clear,270,2013-05-26 09:55:00
4:15 AM,64.4,13.3,14,30.06,10.0,West,10.4,-,N/A,,Clear,270,2013-05-26 10:15:00
4:35 AM,61.9,12.7,15,30.06,10.0,West,10.4,-,N/A,,Clear,270,2013-05-26 10:35:00
4:55 AM,61.0,12.4,15,30.06,10.0,West,9.2,-,N/A,,Clear,260,2013-05-26 10:55:00
5:15 AM,60.6,12.2,15,30.06,10.0,West,11.5,-,N/A,,Clear,270,2013-05-26 11:15:00
5:35 AM,59.7,12.0,15,30.07,10.0,West,5.8,-,N/A,,Clear,270,2013-05-26 11:35:00
5:55 AM,59.4,11.8,15,30.08,10.0,WSW,8.1,-,N/A,,Clear,240,2013-05-26 11:55:00
6:15 AM,63.1,12.9,14,30.08,10.0,WSW,10.4,-,N/A,,Clear,240,2013-05-26 12:15:00
6:35 AM,64.0,12.9,14,30.10,10.0,WSW,10.4,-,N/A,,Clear,240,2013-05-26 12:35:00
6:55 AM,63.9,13.1,14,30.10,10.0,West,8.1,-,N/A,,Clear,260,2013-05-26 12:55:00
7:15 AM,66.7,14.2,13,30.11,10.0,WSW,8.1,-,N/A,,Clear,250,2013-05-26 13:15:00
7:35 AM,69.1,15.1,13,30.11,10.0,West,10.4,-,N/A,,Clear,260,2013-05-26 13:35:00
7:55 AM,71.6,15.8,12,30.11,10.0,West,9.2,-,N/A,,Clear,260,2013-05-26 13:55:00
8:15 AM,73.6,16.5,11,30.11,10.0,West,12.7,-,N/A,,Clear,260,2013-05-26 14:15:00
8:35 AM,75.7,17.6,11,30.11,10.0,West,12.7,-,N/A,,Clear,260,2013-05-26 14:35:00
8:55 AM,77.5,18.0,11,30.12,10.0,WSW,10.4,-,N/A,,Clear,250,2013-05-26 14:55:00
9:15 AM,78.8,18.1,10,30.12,10.0,West,11.5,-,N/A,,Clear,270,2013-05-26 15:15:00
9:35 AM,80.2,18.1,10,30.12,10.0,West,11.5,-,N/A,,Clear,260,2013-05-26 15:35:00
9:55 AM,81.1,18.1,10,30.12,10.0,West,9.2,-,N/A,,Clear,260,2013-05-26 15:55:00
10:15 AM,82.9,19.9,10,30.12,10.0,SW,11.5,-,N/A,,Clear,230,2013-05-26 16:15:00
10:35 AM,83.1,21.6,10,30.12,10.0,WSW,12.7,16.1,N/A,,Clear,240,2013-05-26 16:35:00
10:55 AM,83.8,21.0,10,30.12,10.0,West,9.2,16.1,N/A,,Clear,270,2013-05-26 16:55:00
11:15 AM,84.2,20.3,9,30.11,10.0,SW,5.8,-,N/A,,Clear,220,2013-05-26 17:15:00
11:35 AM,85.1,19.9,9,30.11,10.0,WSW,9.2,-,N/A,,Clear,250,2013-05-26 17:35:00
11:55 AM,86.7,19.6,8,30.11,10.0,WSW,13.8,18.4,N/A,,Clear,240,2013-05-26 17:55:00
12:15 PM,86.9,18.7,8,30.10,10.0,West,5.8,19.6,N/A,,Clear,270,2013-05-26 18:15:00
12:35 PM,88.0,17.2,7,30.09,10.0,SW,10.4,18.4,N/A,,Clear,220,2013-05-26 18:35:00
12:55 PM,88.7,16.3,7,30.08,10.0,WSW,15.0,20.7,N/A,,Clear,240,2013-05-26 18:55:00
1:15 PM,90.0,19.0,7,30.08,10.0,SW,17.3,27.6,N/A,,Clear,230,2013-05-26 19:15:00
1:35 PM,89.8,20.1,8,30.07,10.0,WSW,21.9,28.8,N/A,,Clear,240,2013-05-26 19:35:00
1:55 PM,89.8,20.5,8,30.06,10.0,SW,18.4,27.6,N/A,,Clear,220,2013-05-26 19:55:00
2:15 PM,90.7,19.6,7,30.05,10.0,SSW,18.4,26.5,N/A,,Clear,210,2013-05-26 20:15:00
2:35 PM,91.8,20.5,7,30.04,10.0,SSW,16.1,26.5,N/A,,Clear,210,2013-05-26 20:35:00
2:55 PM,91.6,20.8,8,30.03,10.0,WSW,25.3,31.1,N/A,,Clear,240,2013-05-26 20:55:00
3:15 PM,91.8,18.9,7,30.03,10.0,SSW,13.8,28.8,N/A,,Clear,210,2013-05-26 21:15:00
3:35 PM,91.6,17.2,7,30.02,10.0,WSW,17.3,-,N/A,,Clear,250,2013-05-26 21:35:00
3:55 PM,92.1,16.7,6,30.01,10.0,SW,17.3,25.3,N/A,,Clear,230,2013-05-26 21:55:00
4:15 PM,92.8,16.3,6,30.00,10.0,SW,19.6,26.5,N/A,,Clear,220,2013-05-26 22:15:00
4:35 PM,91.9,15.6,6,29.99,10.0,West,20.7,38.0,N/A,,Clear,260,2013-05-26 22:35:00
4:55 PM,92.3,15.6,6,29.99,10.0,SW,25.3,31.1,N/A,,Clear,220,2013-05-26 22:55:00
5:15 PM,92.3,15.8,6,29.99,10.0,WSW,20.7,29.9,N/A,,Clear,250,2013-05-26 23:15:00
5:35 PM,92.7,14.9,6,29.98,10.0,WSW,21.9,31.1,N/A,,Clear,240,2013-05-26 23:35:00
5:55 PM,91.9,13.5,6,29.97,10.0,West,21.9,27.6,N/A,,Clear,270,2013-05-26 23:55:00
6:15 PM,91.4,13.1,6,29.97,10.0,West,20.7,25.3,N/A,,Clear,270,2013-05-27 00:15:00
6:35 PM,90.0,13.6,6,29.97,10.0,West,25.3,29.9,N/A,,Clear,270,2013-05-27 00:35:00
6:55 PM,89.1,14.0,6,29.98,10.0,West,17.3,29.9,N/A,,Clear,280,2013-05-27 00:55:00
7:15 PM,88.3,12.2,6,29.98,10.0,West,21.9,26.5,N/A,,Clear,280,2013-05-27 01:15:00
7:35 PM,86.7,10.4,6,29.98,10.0,West,15.0,27.6,N/A,,Clear,270,2013-05-27 01:35:00
7:55 PM,85.3,10.6,6,29.98,10.0,West,15.0,-,N/A,,Clear,280,2013-05-27 01:55:00
8:15 PM,83.5,10.4,6,29.99,10.0,West,15.0,-,N/A,,Clear,270,2013-05-27 02:15:00
8:35 PM,81.7,10.4,7,29.99,10.0,West,10.4,-,N/A,,Clear,270,2013-05-27 02:35:00
8:55 PM,79.2,10.4,7,29.99,10.0,West,10.4,-,N/A,,Clear,270,2013-05-27 02:55:00
9:15 PM,78.4,10.8,8,29.99,10.0,West,11.5,-,N/A,,Clear,270,2013-05-27 03:15:00
9:35 PM,77.7,10.4,8,30.00,10.0,West,11.5,-,N/A,,Clear,270,2013-05-27 03:35:00
9:55 PM,76.5,10.2,8,30.00,10.0,West,10.4,-,N/A,,Clear,270,2013-05-27 03:55:00
10:15 PM,76.1,10.0,8,30.01,10.0,West,9.2,-,N/A,,Clear,270,2013-05-27 04:15:00
10:35 PM,74.7,9.5,8,30.02,10.0,West,10.4,-,N/A,,Clear,260,2013-05-27 04:35:00
10:55 PM,72.9,9.1,9,30.02,10.0,West,10.4,-,N/A,,Clear,260,2013-05-27 04:55:00
11:15 PM,70.7,8.6,9,30.02,10.0,West,9.2,-,N/A,,Clear,260,2013-05-27 05:15:00
11:35 PM,68.2,8.2,10,30.02,10.0,WSW,9.2,-,N/A,,Clear,250,2013-05-27 05:35:00
11:55 PM,66.9,7.7,10,30.02,10.0,WSW,8.1,-,N/A,,Clear,250,2013-05-27 05:55:00